Temp
72 76 74 74 62 57 51 58 65 68 70 76 76 72 72 71 70 64 75 80 78 77 77 79 79 79 79 79 79 78 78 78 78 78 79 79 79 79 78 78 78 79 80 80 80 80 80 80 80
74 79 74 65 54 51 56 63 65 66 72 76 78 74 74 72 80 75 74 78 79 77 77 78 79 79 79 79 78 78 78 78 78 78 79 78 78 78 78 78 79 79 80 80 80 80 80 80 80
78 77 66 58 50 51 58 70 67 73 74 75 73 79 76 74 80 79 78 79 77 76 77 77 79 79 79 79 78 78 78 78 78 78 78 78 78 78 78 78 78 79 80 80 80 80 79 79 79
74 70 63 52 53 60 64 69 73 73 76 77 74 74 79 81 80 82 80 79 76 77 77 78 78 78 78 79 78 78 78 78 78 78 78 78 78 77 77 78 78 79 80 80 80 79 78 78 78
68 62 52 46 52 61 67 72 75 73 73 74 75 71 73 82 81 80 78 79 75 76 76 78 78 78 78 79 78 78 78 78 78 78 78 78 77 77 77 77 78 79 79 79 79 78 77 77 78
61 58 46 44 53 64 66 70 74 74 77 76 73 74 72 79 78 78 80 76 78 75 76 79 79 78 78 78 78 78 77 77 77 77 77 77 77 77 77 77 78 78 78 78 78 77 77 77 77
59 51 47 47 53 58 66 70 68 72 74 74 78 72 73 76 80 79 80 78 78 77 77 79 78 78 78 78 77 77 77 77 76 76 76 76 77 76 76 77 77 77 77 77 77 77 77 76 76
63 54 47 51 53 55 67 68 67 70 74 84 82 70 69 75 79 79 80 77 74 74 77 79 78 77 75 76 77 77 77 77 76 76 76 76 76 76 76 75 76 77 77 77 76 76 76 76 76
65 50 45 52 54 61 67 63 69 77 74 78 80 77 81 81 76 76 74 73 72 74 74 78 78 76 75 75 77 77 78 77 76 76 76 75 73 73 74 74 76 77 77 76 76 76 76 76 76
56 46 51 60 63 61 66 65 65 69 71 72 74 81 81 80 76 73 72 71 71 72 71 76 78 75 74 78 76 75 75 75 74 74 74 72 71 70 73 74 76 76 76 76 76 76 76 76 68
56 51 56 60 64 66 66 68 70 66 64 68 70 76 79 76 74 71 72 73 73 73 73 73 76 77 73 76 76 77 76 76 75 73 72 70 70 70 70 68 70 69 74 69 72 71 69 68 67
52 60 62 63 65 65 63 69 69 69 71 74 77 76 79 76 73 72 70 70 72 72 75 73 74 76 72 74 78 78 77 76 75 74 71 69 68 67 67 66 66 67 67 67 67 67 67 67 68
54 59 63 65 65 63 67 65 65 69 74 78 78 79 76 74 73 73 74 72 73 72 74 74 73 74 73 74 77 77 77 75 75 73 71 70 67 67 66 65 65 66 66 66 66 67 67 67 68
56 59 60 61 62 61 62 66 64 70 74 75 75 74 73 73 74 72 72 72 70 72 73 75 74 73 73 74 75 76 76 74 72 72 72 70 68 65 65 66 66 66 67 67 68 68 67 67 68
58 53 56 57 57 58 61 58 62 68 72 71 73 75 73 73 75 75 75 72 73 72 73 73 74 73 73 74 72 72 73 73 72 72 72 72 69 67 67 66 66 68 67 68 68 68 68 67 68
51 49 42 51 57 61 60 51 63 67 68 68 70 71 72 73 73 74 74 72 71 70 71 72 76 73 74 75 74 74 73 73 73 73 73 73 72 71 68 69 70 69 69 69 68 68 68 67 67
43 38 42 48 57 58 56 52 61 65 64 63 64 67 69 70 69 70 73 70 70 70 70 71 72 73 73 74 75 76 73 71 73 73 73 73 74 72 71 71 71 69 68 69 69 68 68 68 67
39 40 45 45 54 54 53 54 59 62 62 62 65 64 65 67 70 69 69 68 67 68 68 69 73 72 71 70 70 70 69 69 70 72 75 74 74 73 72 71 70 69 68 69 68 68 67 68 68
49 46 45 52 59 51 53 54 56 59 59 60 60 59 62 64 69 67 67 66 64 64 65 66 67 68 71 69 68 68 68 68 69 69 72 73 74 73 72 74 71 70 71 70 70 69 68 67 67
49 46 46 52 57 52 51 51 57 57 59 60 59 58 60 59 60 62 63 63 63 63 63 64 66 67 68 69 68 67 67 67 69 69 71 73 74 72 71 71 70 70 69 69 69 68 66 66 67
49 45 47 47 53 53 49 46 50 55 58 62 61 58 60 61 61 60 61 61 61 61 61 62 63 64 64 66 66 65 65 66 65 66 66 68 71 73 71 71 70 71 70 70 68 68 67 67 66
43 53 52 51 45 38 50 37 48 50 53 56 59 58 60 61 61 60 60 59 60 62 61 61 62 62 62 63 65 65 64 63 64 65 66 66 69 69 72 72 71 70 69 70 69 70 69 67 67
48 54 51 49 43 37 41 34 42 48 49 54 56 59 58 59 61 61 60 64 63 60 59 59 60 60 60 60 61 61 62 63 63 64 65 64 66 68 68 72 74 73 70 70 69 67 67 67 67
56 49 45 41 38 30 41 38 41 48 49 52 57 59 60 61 61 61 64 63 59 59 59 58 59 59 59 59 59 60 60 59 60 61 62 63 64 65 67 68 68 73 75 76 77 72 68 66 65
47 40 27 27 27 32 43 38 44 49 55 55 55 56 57 59 62 56 56 60 59 58 57 58 59 59 58 59 59 58 59 58 59 59 60 61 62 62 64 65 66 66 67 70 74 73 72 69 67
40 39 28 25 25 30 38 32 41 53 56 56 55 54 54 52 53 56 60 63 62 59 58 59 58 59 58 60 60 59 59 58 58 59 59 59 59 61 63 64 65 66 68 68 68 67 67 67 68
40 33 43 32 33 28 31 39 50 53 52 54 54 55 53 53 55 54 56 56 58 58 58 58 58 59 60 61 59 58 58 57 58 59 58 59 60 63 63 63 63 65 65 67 66 65 66 67 69
42 44 33 33 25 23 29 32 35 45 48 51 51 49 52 53 54 55 56 58 56 56 59 58 59 60 60 59 59 60 59 59 58 58 59 58 59 60 61 62 62 63 64 64 63 65 66 65 67
38 38 38 36 33 23 21 30 44 44 47 49 50 54 52 53 54 54 55 56 56 57 56 56 58 59 58 58 58 58 59 59 58 58 58 58 58 59 60 62 63 63 63 63 64 65 67 67 67
45 40 39 29 29 33 30 29 47 47 51 49 50 55 58 54 56 54 56 55 56 55 56 57 56 54 58 60 58 58 57 57 57 58 59 59 59 60 61 62 63 64 64 63 62 63 66 67 65
MSLP
1009.19 1008.80 1008.74 1008.93 1010.25 1010.29 1009.62 1008.82 1007.68 1006.68 1006.00 1004.97 1004.06 1003.88 1003.95 1004.57 1004.91 1005.46 1004.69 1004.94 1005.45 1006.41 1007.19 1007.54 1007.95 1008.44 1008.60 1008.68 1008.92 1009.32 1009.81 1010.17 1010.47 1010.78 1011.10 1011.52 1011.94 1012.24 1012.37 1012.63 1012.92 1013.18 1013.32 1013.49 1013.70 1013.84 1013.99 1014.14 1014.37
1009.24 1008.93 1009.07 1009.74 1010.70 1010.49 1009.25 1008.03 1007.43 1006.60 1006.07 1004.88 1003.96 1003.85 1003.88 1004.56 1004.42 1004.89 1005.42 1005.55 1006.00 1006.52 1006.92 1007.36 1007.89 1008.46 1008.65 1009.07 1009.37 1009.64 1010.01 1010.50 1010.73 1010.98 1011.32 1011.58 1011.86 1012.19 1012.48 1012.86 1013.03 1013.22 1013.45 1013.62 1013.73 1013.92 1014.09 1014.33 1014.51
1009.35 1009.45 1010.36 1010.76 1011.13 1010.42 1008.68 1007.24 1007.18 1006.02 1005.76 1004.71 1004.20 1003.66 1004.01 1004.88 1004.68 1004.59 1004.69 1005.56 1006.25 1006.69 1006.94 1007.23 1007.69 1008.37 1008.86 1009.21 1009.71 1010.05 1010.32 1010.72 1011.01 1011.30 1011.54 1011.77 1012.01 1012.23 1012.62 1012.96 1013.23 1013.37 1013.51 1013.66 1013.80 1014.08 1014.26 1014.47 1014.65
1009.79 1010.21 1011.49 1011.30 1011.03 1009.65 1008.20 1007.54 1006.99 1006.23 1005.83 1004.64 1004.47 1004.58 1004.38 1004.53 1004.62 1004.38 1005.11 1005.65 1006.55 1007.25 1007.20 1007.20 1007.59 1008.17 1008.76 1009.28 1009.71 1010.18 1010.49 1010.99 1011.34 1011.50 1011.78 1012.13 1012.28 1012.48 1012.85 1013.21 1013.42 1013.52 1013.59 1013.81 1013.98 1014.15 1014.35 1014.40 1014.49
1010.39 1011.17 1012.09 1011.95 1011.17 1009.34 1008.14 1007.87 1007.46 1006.53 1006.17 1005.33 1004.29 1005.25 1004.96 1004.50 1004.51 1004.88 1005.50 1006.12 1006.57 1007.19 1007.53 1007.58 1007.84 1008.21 1008.89 1009.31 1009.85 1010.07 1010.45 1010.90 1011.36 1011.68 1012.04 1012.21 1012.63 1012.88 1013.08 1013.33 1013.53 1013.69 1013.90 1014.15 1014.39 1014.44 1014.51 1014.50 1014.45
1011.19 1012.04 1012.71 1012.43 1011.21 1009.29 1008.13 1007.76 1007.25 1006.51 1006.17 1005.78 1005.07 1004.88 1005.01 1004.88 1005.03 1005.22 1005.56 1006.35 1006.86 1007.21 1007.54 1008.00 1008.18 1008.31 1008.64 1009.22 1009.74 1010.28 1010.35 1010.66 1011.31 1011.69 1011.91 1012.30 1012.58 1013.00 1013.35 1013.48 1013.60 1013.67 1013.87 1014.14 1014.41 1014.57 1014.53 1014.63 1014.53
1011.45 1012.37 1012.47 1011.99 1011.34 1009.77 1008.19 1007.48 1007.47 1006.83 1005.87 1005.97 1005.58 1004.79 1004.96 1005.04 1004.62 1004.99 1005.37 1006.15 1007.00 1007.74 1007.88 1008.05 1008.55 1008.75 1008.96 1009.16 1009.57 1010.19 1010.58 1010.68 1010.93 1011.52 1011.85 1012.14 1012.39 1012.70 1013.05 1013.40 1013.65 1013.79 1013.85 1014.06 1014.44 1014.59 1014.75 1014.56 1014.62
1011.16 1012.15 1012.32 1011.79 1011.14 1009.40 1008.41 1007.77 1007.26 1007.06 1005.89 1005.17 1005.12 1005.07 1004.79 1004.88 1004.77 1004.23 1005.47 1006.56 1007.14 1007.56 1008.00 1008.37 1008.56 1008.96 1009.14 1009.49 1009.78 1010.07 1010.60 1010.94 1011.04 1011.36 1011.70 1012.02 1012.33 1012.58 1012.72 1013.00 1013.33 1013.53 1013.71 1013.89 1014.14 1014.32 1014.50 1014.58 1014.54
1010.86 1011.95 1012.25 1011.45 1010.76 1009.30 1008.18 1008.32 1007.49 1006.83 1006.55 1005.80 1005.80 1005.68 1004.08 1004.66 1005.17 1005.19 1005.84 1006.68 1007.44 1007.97 1008.29 1008.39 1008.65 1009.02 1009.25 1009.43 1009.94 1010.04 1010.55 1010.89 1011.25 1011.37 1011.56 1011.80 1012.18 1012.40 1012.65 1012.77 1012.90 1013.19 1013.35 1013.53 1013.80 1014.03 1014.27 1014.46 1014.58
1011.05 1011.75 1011.24 1010.57 1009.80 1009.37 1008.69 1008.46 1007.89 1007.31 1006.76 1006.34 1005.51 1005.01 1004.20 1004.54 1005.27 1005.29 1006.07 1006.69 1007.00 1007.56 1008.13 1008.46 1008.65 1009.03 1009.34 1009.63 1009.88 1010.06 1010.36 1010.87 1011.09 1011.48 1011.56 1011.80 1011.94 1012.32 1012.46 1012.55 1012.65 1012.78 1012.97 1013.32 1013.54 1013.79 1014.01 1014.30 1014.55
1010.65 1010.70 1010.47 1009.99 1009.55 1009.38 1008.64 1007.84 1007.95 1007.33 1006.71 1006.46 1005.99 1005.20 1004.68 1005.16 1005.14 1005.36 1005.76 1005.60 1005.97 1006.79 1007.67 1008.24 1008.71 1008.95 1009.27 1009.58 1009.97 1010.21 1010.19 1010.76 1011.11 1011.30 1011.49 1011.70 1011.93 1012.18 1012.35 1012.58 1012.57 1012.78 1012.93 1013.21 1013.52 1013.75 1013.96 1014.17 1014.35
1010.48 1010.12 1009.91 1009.25 1009.17 1008.93 1008.36 1007.53 1007.16 1007.03 1006.50 1006.00 1005.67 1005.27 1004.92 1004.91 1005.11 1005.19 1005.53 1005.85 1006.12 1006.44 1006.76 1007.47 1008.20 1008.75 1009.13 1009.26 1009.66 1010.16 1010.12 1010.21 1010.73 1011.03 1011.38 1011.61 1011.82 1012.07 1012.31 1012.55 1012.68 1012.75 1012.94 1013.22 1013.58 1013.83 1013.99 1014.19 1014.17
1010.24 1009.87 1009.61 1009.03 1008.74 1008.40 1007.97 1007.60 1007.32 1005.75 1006.14 1005.60 1005.09 1004.83 1004.74 1004.80 1004.57 1004.69 1004.99 1005.32 1005.76 1006.22 1006.45 1007.03 1007.67 1008.13 1008.85 1009.17 1009.43 1009.83 1010.18 1010.20 1010.28 1010.77 1011.04 1011.33 1011.65 1011.83 1012.00 1012.19 1012.48 1012.70 1012.94 1013.17 1013.55 1013.74 1013.90 1013.91 1013.95
1009.89 1009.69 1009.48 1008.96 1008.50 1008.20 1008.02 1007.33 1006.85 1005.05 1005.32 1004.93 1004.72 1004.47 1004.37 1004.23 1004.28 1004.45 1004.95 1005.27 1005.59 1005.70 1005.85 1006.23 1006.79 1007.26 1007.91 1008.62 1008.81 1009.29 1009.57 1009.93 1010.07 1010.25 1010.57 1010.77 1011.13 1011.58 1011.83 1012.09 1012.36 1012.50 1012.63 1012.84 1013.12 1013.44 1013.74 1013.79 1013.76
1010.09 1010.07 1009.47 1008.99 1008.48 1008.10 1007.51 1007.18 1005.90 1005.56 1005.19 1004.94 1004.48 1004.21 1003.97 1004.27 1003.78 1003.98 1004.42 1004.41 1004.73 1005.07 1005.54 1005.69 1006.21 1006.78 1007.06 1007.38 1008.12 1008.61 1009.08 1009.36 1009.84 1009.82 1010.14 1010.45 1010.74 1011.06 1011.46 1011.74 1011.94 1011.98 1012.17 1012.57 1012.85 1013.02 1013.29 1013.52 1013.43
1010.54 1010.41 1010.07 1009.03 1008.55 1008.03 1007.83 1006.76 1006.04 1005.57 1005.56 1005.23 1004.85 1004.45 1003.95 1003.32 1003.47 1003.34 1003.85 1003.99 1004.06 1004.50 1005.08 1005.26 1005.62 1006.48 1006.67 1007.11 1006.82 1007.45 1008.18 1008.90 1009.00 1009.20 1009.54 1009.65 1010.17 1010.43 1011.02 1011.23 1011.32 1011.38 1011.55 1012.13 1012.69 1012.80 1013.13 1013.12 1013.15
1011.25 1011.21 1010.43 1009.58 1008.54 1008.20 1007.96 1006.65 1006.20 1005.69 1005.57 1005.36 1005.17 1004.47 1004.21 1003.66 1003.36 1003.06 1003.32 1003.78 1003.90 1004.29 1004.41 1004.88 1005.40 1005.60 1006.26 1006.53 1007.33 1007.49 1007.99 1008.98 1009.50 1009.51 1009.30 1009.32 1009.56 1009.97 1010.28 1010.55 1011.24 1011.28 1011.55 1011.62 1012.14 1012.50 1012.87 1012.90 1012.80
1011.80 1011.42 1010.54 1009.90 1008.85 1008.30 1007.95 1006.55 1006.16 1005.76 1005.61 1004.98 1004.48 1004.19 1003.83 1003.60 1002.87 1002.96 1002.94 1003.44 1003.96 1004.42 1004.61 1004.53 1004.77 1005.07 1005.85 1006.31 1007.01 1007.43 1007.59 1008.24 1009.37 1009.51 1009.69 1009.68 1009.15 1009.26 1009.84 1010.31 1010.37 1011.15 1011.46 1011.61 1011.80 1012.09 1012.36 1012.70 1012.49
1011.39 1011.17 1010.54 1009.41 1008.45 1008.47 1007.79 1006.82 1006.04 1005.82 1005.42 1004.73 1004.01 1004.25 1003.74 1003.45 1002.53 1002.64 1003.05 1003.81 1004.19 1004.76 1004.58 1004.73 1004.87 1004.94 1005.56 1006.17 1006.79 1007.50 1007.79 1008.25 1009.29 1009.13 1008.71 1009.43 1009.85 1008.92 1008.95 1009.85 1010.28 1010.75 1010.96 1011.43 1011.79 1011.80 1011.97 1012.45 1012.42
1010.92 1010.75 1010.09 1008.93 1008.26 1008.21 1007.69 1007.04 1005.85 1005.61 1005.18 1004.58 1004.07 1004.10 1003.85 1003.61 1003.31 1003.34 1003.44 1003.86 1004.28 1004.25 1004.68 1004.66 1004.77 1005.12 1005.31 1005.45 1006.06 1006.62 1007.39 1008.15 1008.75 1009.00 1008.80 1009.02 1009.14 1008.33 1009.01 1008.32 1010.03 1010.88 1010.95 1011.08 1011.68 1011.66 1012.08 1012.08 1012.25
1010.13 1010.11 1009.55 1009.05 1008.27 1007.84 1007.67 1007.16 1006.10 1005.42 1004.98 1004.62 1004.18 1004.03 1004.11 1003.61 1003.53 1003.80 1004.02 1003.56 1004.00 1004.49 1004.43 1004.61 1004.87 1005.28 1005.33 1005.42 1005.77 1006.43 1006.83 1007.72 1008.42 1008.49 1008.73 1008.62 1008.51 1007.90 1008.42 1008.26 1009.13 1010.55 1010.73 1010.79 1011.11 1011.13 1011.61 1011.73 1012.15
1009.57 1009.18 1009.12 1008.94 1008.95 1008.86 1007.91 1007.40 1006.51 1005.49 1005.18 1004.83 1004.40 1004.01 1003.74 1003.78 1003.65 1003.70 1003.82 1003.97 1004.08 1004.18 1004.36 1004.57 1004.77 1005.07 1005.36 1005.53 1005.95 1006.31 1006.80 1007.41 1007.59 1007.72 1007.80 1008.09 1008.21 1008.11 1008.49 1007.60 1008.73 1010.40 1010.87 1010.10 1010.86 1010.84 1011.13 1011.43 1011.74
1009.32 1009.22 1009.34 1009.24 1009.45 1009.35 1008.71 1008.47 1006.08 1005.62 1005.05 1004.45 1004.12 1003.87 1003.65 1003.64 1003.55 1003.47 1003.70 1003.50 1003.44 1003.87 1004.11 1004.46 1004.79 1004.98 1005.14 1005.38 1005.78 1006.32 1006.80 1006.91 1007.11 1007.51 1007.65 1007.72 1007.66 1007.81 1008.68 1008.56 1007.71 1008.31 1009.70 1010.84 1009.78 1011.48 1011.31 1011.03 1010.88
1009.40 1009.66 1009.89 1010.12 1010.34 1010.08 1008.61 1008.65 1006.43 1005.17 1004.73 1004.08 1003.61 1003.63 1003.23 1002.67 1002.49 1002.35 1002.40 1002.96 1003.55 1003.78 1004.07 1004.38 1004.75 1005.00 1005.22 1005.48 1005.94 1006.24 1006.63 1006.98 1007.37 1007.53 1007.65 1007.67 1007.83 1007.68 1007.96 1008.32 1008.83 1008.98 1008.81 1009.16 1009.00 1010.17 1011.09 1010.46 1010.36
1010.25 1010.96 1011.78 1011.44 1011.22 1009.79 1008.83 1008.44 1005.68 1004.50 1004.08 1003.94 1003.95 1003.81 1003.00 1002.50 1001.84 1001.74 1002.03 1002.71 1003.18 1003.82 1003.84 1004.05 1004.50 1005.07 1005.42 1005.71 1005.89 1006.08 1006.32 1006.72 1006.98 1007.34 1007.38 1007.70 1007.71 1008.08 1008.08 1008.18 1008.62 1008.88 1009.17 1009.38 1009.06 1009.24 1009.65 1008.75 1009.01
1011.05 1011.94 1012.83 1012.23 1011.68 1010.58 1009.53 1007.90 1005.75 1004.50 1003.78 1003.62 1004.10 1003.83 1003.17 1002.33 1001.86 1001.38 1001.30 1001.41 1002.37 1003.13 1003.43 1003.75 1004.39 1004.82 1005.09 1005.29 1005.42 1005.55 1005.77 1006.34 1006.73 1006.87 1006.95 1007.16 1007.39 1007.56 1007.75 1007.87 1008.06 1008.41 1008.67 1008.74 1008.96 1008.96 1009.30 1008.58 1008.13
1011.33 1012.07 1012.21 1012.84 1012.44 1012.06 1010.05 1007.93 1006.12 1004.80 1004.08 1003.92 1003.89 1004.02 1003.92 1002.85 1002.43 1002.43 1002.53 1001.61 1002.24 1002.74 1003.08 1003.46 1004.02 1004.31 1004.51 1004.58 1004.85 1005.25 1005.53 1006.01 1006.16 1006.19 1006.32 1006.38 1006.54 1006.84 1006.96 1007.23 1007.66 1007.93 1008.08 1008.07 1008.13 1008.23 1008.30 1007.95 1007.81
1011.25 1011.98 1012.73 1012.93 1012.48 1011.92 1010.31 1008.75 1007.16 1005.74 1004.89 1004.55 1003.94 1004.46 1004.25 1003.43 1003.01 1003.13 1003.25 1003.10 1003.42 1003.74 1003.15 1003.15 1003.42 1003.73 1003.83 1004.23 1004.52 1004.86 1005.16 1005.39 1005.57 1005.73 1005.94 1006.06 1006.07 1006.24 1006.54 1007.06 1007.38 1007.75 1007.84 1007.49 1007.78 1007.88 1008.07 1007.92 1007.75
1011.72 1012.13 1013.14 1013.08 1012.82 1012.07 1010.80 1008.61 1007.00 1006.82 1006.15 1004.97 1004.39 1003.82 1004.01 1003.93 1003.68 1003.60 1003.71 1003.65 1003.53 1003.60 1003.92 1004.17 1003.44 1003.29 1003.65 1003.84 1004.10 1004.52 1004.74 1004.93 1005.19 1005.42 1005.58 1005.87 1006.24 1006.59 1006.96 1006.98 1007.26 1007.46 1007.38 1007.16 1007.25 1007.35 1007.24 1007.53 1007.45
1011.50 1011.98 1012.78 1013.32 1013.12 1012.36 1011.38 1009.18 1007.90 1007.20 1007.15 1006.08 1005.29 1004.11 1003.55 1003.26 1003.56 1003.65 1003.81 1003.57 1003.68 1003.60 1003.59 1003.68 1003.91 1003.99 1003.67 1003.21 1003.76 1004.10 1004.30 1004.73 1005.06 1005.22 1005.36 1005.61 1005.97 1006.25 1006.55 1006.88 1007.14 1006.96 1006.71 1006.75 1006.85 1006.84 1007.05 1006.95 1006.55
Wind_Speed
7 9 1 4 3 4 2 5 3 8 8 8 4 3 11 2 1 4 4 7 17 17 13 16 17 15 15 18 20 21 21 21 20 20 20 19 18 17 17 15 15 14 14 13 12 11 9 8 8
5 6 4 3 4 2 4 4 4 3 5 10 7 2 8 2 1 4 4 8 15 16 14 14 18 15 16 16 17 19 20 20 20 20 19 19 18 17 16 14 14 14 13 12 11 9 8 7 7
5 3 3 4 2 5 5 5 4 13 3 4 1 3 3 3 3 4 6 14 14 13 14 15 19 17 16 17 16 16 18 18 18 18 17 17 16 15 14 13 12 13 12 11 10 8 8 7 7
4 4 4 4 6 6 4 4 8 14 7 7 1 5 3 2 4 3 13 17 15 11 12 18 20 19 17 17 17 16 17 16 15 15 15 14 14 13 12 12 11 11 11 10 9 8 7 7 6
4 3 1 1 6 7 2 3 6 10 3 7 4 2 2 9 6 11 12 14 14 13 9 13 19 19 18 18 18 18 18 17 15 15 14 14 12 11 11 10 10 9 8 7 6 5 5 4 4
3 3 3 4 7 10 1 3 6 6 4 6 3 7 2 1 2 7 12 9 9 13 11 14 17 19 20 19 18 16 18 18 16 15 15 13 12 10 9 9 9 8 8 6 6 4 3 1 1
5 4 6 4 5 7 5 1 2 6 8 4 7 7 4 4 8 10 12 10 10 9 12 14 12 14 18 18 18 17 16 18 18 16 15 14 14 12 11 10 8 8 7 7 5 4 3 3 2
4 5 3 5 5 12 5 1 3 6 18 7 1 3 6 4 5 12 12 8 7 9 11 14 14 10 11 12 18 18 16 17 18 17 15 14 14 13 13 11 10 9 8 8 7 6 5 5 4
4 2 4 7 8 13 10 4 1 3 8 8 2 5 9 10 2 14 12 10 9 7 8 13 14 11 10 10 12 16 18 16 16 16 17 14 7 8 9 10 12 11 10 9 8 7 7 6 6
5 4 8 5 6 6 10 4 5 6 15 12 15 6 3 7 5 16 13 12 13 13 10 13 14 10 7 8 10 10 9 7 7 8 10 6 7 6 8 10 12 12 11 10 9 9 7 6 3
5 7 5 5 7 9 13 13 4 5 13 9 9 6 6 5 6 9 11 17 19 14 11 11 13 13 7 7 7 6 6 6 5 7 7 5 5 5 4 3 4 4 8 3 5 4 3 4 3
3 5 6 7 8 7 8 11 11 8 14 11 14 8 11 9 10 9 10 10 13 16 17 16 14 15 8 5 8 10 8 8 7 8 6 5 4 4 4 3 4 4 3 4 4 2 3 4 5
5 5 6 10 10 8 9 14 13 23 12 14 15 14 11 10 7 7 7 6 12 14 14 16 15 14 11 10 10 9 10 9 11 8 7 5 5 6 4 4 4 4 3 3 4 4 3 5 5
2 5 6 6 8 5 7 14 6 13 11 16 13 12 8 11 12 6 7 9 10 9 13 17 18 16 15 13 15 12 10 10 8 8 9 9 6 4 4 4 4 4 4 4 4 4 4 4 4
4 5 7 4 3 4 1 7 14 4 6 10 10 9 8 10 9 10 13 10 13 9 12 16 16 16 18 19 13 10 9 9 9 8 9 10 8 7 6 5 5 5 4 5 4 4 3 4 3
5 2 4 4 1 6 6 12 13 6 8 11 11 10 10 10 11 10 8 9 10 8 14 12 13 16 15 14 15 12 11 9 9 9 9 13 12 10 6 6 7 5 5 4 4 4 4 4 4
5 5 6 7 6 4 6 11 7 7 6 10 11 11 11 11 7 9 10 9 10 10 11 13 12 16 15 11 9 8 7 2 4 5 7 11 11 11 8 7 4 4 4 5 4 4 3 3 3
5 5 7 5 8 4 8 18 10 9 6 14 12 12 10 11 13 10 9 8 8 7 5 8 10 13 10 4 4 4 5 5 3 4 5 8 10 11 9 5 5 5 4 4 3 5 3 3 2
5 5 12 14 16 4 13 17 11 9 8 11 11 9 11 12 11 7 8 7 6 4 8 8 8 7 10 5 5 4 7 8 9 9 8 6 7 9 10 6 4 5 6 5 4 2 4 2 3
8 12 14 12 15 6 9 11 14 6 7 8 10 9 11 5 2 3 8 8 9 8 6 6 8 7 5 5 4 4 4 5 6 5 10 15 13 8 8 9 4 5 4 3 5 3 1 2 4
7 7 9 12 7 5 2 7 8 5 5 6 6 4 5 9 8 5 7 10 8 9 9 9 8 8 6 5 4 3 2 2 4 4 4 5 6 7 7 5 5 5 4 6 5 4 6 4 3
3 4 7 7 2 7 3 11 10 7 7 5 8 7 8 7 6 5 9 8 9 10 8 8 8 8 7 7 5 5 4 4 3 4 4 4 6 4 5 12 10 6 5 3 4 3 5 3 5
7 4 5 4 4 2 3 1 11 3 7 10 9 9 6 10 10 11 11 15 10 8 9 7 7 7 7 6 5 4 3 3 2 1 3 3 4 5 6 8 7 10 6 7 2 5 6 5 4
3 3 2 1 3 3 6 7 11 12 9 6 4 8 9 12 10 12 14 11 8 7 8 8 8 7 7 8 8 9 8 5 3 3 3 2 3 3 5 4 5 9 13 17 17 11 11 8 6
8 6 5 5 2 12 5 4 18 6 8 6 5 10 12 12 15 9 12 15 12 11 10 8 8 7 7 7 7 7 8 7 6 5 4 3 1 2 5 4 6 6 6 7 8 11 15 11 7
1 6 5 7 5 8 6 8 7 6 2 2 1 6 8 10 7 11 15 17 15 11 9 9 9 7 7 7 7 6 6 5 4 5 4 4 3 3 3 5 5 5 7 8 7 7 8 5 6
4 5 4 3 1 2 5 8 10 6 1 3 7 9 11 9 9 8 8 5 9 8 10 10 9 8 9 9 6 5 4 6 6 6 4 3 3 3 3 2 4 4 5 5 5 4 6 4 8
5 3 2 2 4 5 4 4 9 11 6 4 5 4 6 8 11 10 8 8 5 7 5 8 10 12 10 8 7 6 8 7 6 4 5 4 4 2 2 4 4 4 5 5 5 6 8 6 6
3 2 2 2 4 4 1 5 5 4 10 9 7 4 5 5 6 7 5 6 5 2 3 7 7 9 8 8 7 7 7 7 4 3 2 2 1 3 5 5 5 6 6 5 5 6 7 8 9
4 3 5 2 3 3 2 7 6 10 16 11 12 11 4 6 4 5 6 6 7 6 4 5 5 5 6 8 7 8 7 6 6 6 6 6 6 5 6 5 5 6 6 6 5 5 7 7 7
Wind_Direction
328 312 46 31 47 65 258 273 258 324 9 318 305 115 130 60 189 231 305 139 134 145 153 155 154 154 143 136 134 134 134 134 133 133 132 133 135 135 132 133 131 136 141 144 144 142 138 131 120
326 331 29 65 96 102 267 238 305 293 296 290 308 8 46 46 29 111 95 128 141 146 154 155 155 154 146 139 137 137 136 137 138 138 138 139 139 137 134 135 140 146 148 149 145 141 135 128 118
327 43 51 91 130 183 226 143 303 312 355 289 198 55 59 13 312 183 134 140 142 154 157 157 155 152 149 142 140 136 134 139 138 138 139 139 138 136 138 144 147 152 154 154 149 146 138 126 111
357 20 27 104 234 251 239 7 325 322 11 327 72 41 8 318 270 141 140 142 142 158 161 160 156 151 151 150 146 142 139 139 140 138 138 139 139 138 144 149 154 160 159 158 154 150 143 137 124
36 62 69 255 260 263 238 351 290 295 343 307 107 15 55 333 5 115 136 152 150 159 166 161 157 152 153 154 153 150 145 143 143 143 145 142 140 143 148 154 159 160 154 152 157 148 146 142 121
47 87 108 218 243 272 342 49 307 308 65 324 1 133 188 358 173 148 145 155 157 156 157 168 165 159 157 157 156 157 150 146 149 152 149 146 146 151 156 160 163 161 152 156 162 167 168 160 129
135 105 208 198 262 291 285 69 330 307 319 241 274 136 196 194 206 171 163 144 144 153 161 169 170 166 159 158 158 159 158 153 153 156 155 155 156 160 165 169 170 166 160 160 170 186 205 211 263
130 109 203 206 232 265 256 265 9 331 302 323 234 220 235 180 270 165 140 131 132 145 166 173 171 168 160 161 162 160 163 163 159 159 161 162 166 169 173 176 177 177 177 175 186 200 217 238 241
104 112 224 214 193 249 294 304 141 276 261 309 203 277 239 143 133 117 119 120 127 142 168 175 174 170 166 158 171 165 169 170 169 167 168 166 170 175 186 183 186 186 188 185 196 208 221 240 265
136 172 225 218 231 268 278 252 305 320 296 289 302 258 153 136 181 134 148 157 159 165 166 178 177 164 171 167 173 169 171 173 172 178 176 175 169 180 188 194 196 194 196 196 204 213 220 241 249
189 220 214 242 232 241 268 284 252 256 280 247 267 276 300 114 160 146 170 170 178 166 165 171 176 172 164 173 174 182 174 178 188 186 180 175 173 189 196 200 199 196 209 195 211 225 211 224 243
249 251 237 265 234 244 250 270 268 237 257 258 270 245 228 205 166 171 177 180 168 173 174 167 172 176 175 163 177 194 188 182 191 193 187 177 181 186 199 198 209 201 196 199 203 217 230 242 250
204 253 270 267 270 254 262 266 262 264 267 269 269 268 203 216 205 172 186 181 171 175 172 175 169 173 176 169 182 192 201 195 192 193 189 183 193 195 181 202 194 204 191 198 215 211 224 239 245
224 259 260 275 269 260 256 266 259 275 240 248 255 251 190 207 200 162 179 181 185 174 178 175 178 176 172 182 184 193 197 202 193 189 197 193 191 191 184 190 204 212 200 195 203 208 216 233 225
255 285 315 230 231 263 171 287 255 247 239 229 256 263 245 219 190 192 185 180 182 189 173 179 181 181 179 181 182 187 197 194 197 201 194 199 196 188 190 196 206 207 199 213 201 217 216 245 230
3 82 304 274 257 258 156 259 278 262 217 237 251 263 260 255 198 208 243 175 192 163 179 176 177 189 189 198 185 186 190 195 200 200 199 197 199 195 200 201 215 196 184 190 204 216 233 224 232
355 260 273 306 209 223 190 270 259 282 276 246 242 244 248 255 254 216 202 199 185 193 167 171 179 183 193 190 200 199 150 182 245 245 211 206 201 199 191 199 229 205 206 188 194 215 211 239 244
267 298 287 286 287 177 271 274 273 274 256 271 271 236 235 239 235 219 212 195 177 174 169 163 180 180 176 151 138 139 138 153 233 213 252 244 208 191 195 202 186 201 207 216 183 200 210 245 186
238 259 264 279 278 277 273 272 276 267 290 291 286 227 229 233 244 179 189 162 147 175 157 160 151 157 163 154 145 152 176 179 210 222 199 239 234 200 180 211 209 199 207 220 211 185 190 222 194
243 258 273 272 260 190 251 260 278 243 256 266 272 229 224 247 212 198 179 167 180 171 179 157 146 157 166 148 144 151 157 192 199 208 209 211 212 188 209 162 191 218 195 190 206 179 202 201 204
256 238 269 263 276 258 251 283 285 277 267 279 268 237 270 239 209 190 218 194 171 178 179 170 161 147 144 133 103 82 62 124 169 193 212 224 234 179 174 165 141 236 210 200 206 184 189 199 236
264 281 279 266 225 259 151 274 278 272 272 258 273 272 272 254 250 220 203 208 197 191 174 160 158 152 144 148 142 161 159 172 223 158 185 245 252 295 233 168 163 189 240 278 214 210 216 161 230
234 303 284 299 261 10 242 193 280 249 272 267 278 294 273 238 232 230 204 212 203 165 168 163 151 149 143 130 133 131 144 182 193 219 249 193 189 196 268 293 225 187 175 254 170 244 239 198 176
322 314 293 62 129 244 248 183 270 269 236 232 230 291 294 300 259 228 214 194 190 159 158 156 159 161 159 154 157 155 162 177 170 192 231 208 204 173 200 241 293 261 232 230 233 235 220 207 204
50 40 320 296 254 250 168 213 243 283 275 247 277 296 305 279 272 222 176 179 164 180 169 159 160 171 175 168 162 167 173 177 185 194 191 206 168 206 216 198 215 225 240 262 243 213 221 198 192
160 166 189 271 248 275 339 242 263 256 325 81 16 336 334 334 286 210 192 175 173 170 166 164 171 166 179 181 187 177 166 175 191 195 179 183 178 206 199 203 224 215 210 211 214 221 241 240 210
188 198 161 221 252 299 242 300 293 292 236 5 51 26 2 9 29 21 12 110 149 170 178 174 173 196 193 194 181 198 190 192 207 211 185 186 194 206 236 262 274 270 222 202 208 232 244 244 234
171 143 242 251 225 209 264 254 248 327 314 317 0 58 5 21 35 28 27 34 13 334 227 183 190 193 198 194 192 200 203 209 222 193 206 215 249 242 269 270 258 247 241 219 217 241 249 243 254
326 268 234 266 235 227 284 256 209 287 297 311 285 253 131 57 48 31 15 12 18 357 329 292 221 198 191 185 190 200 206 208 202 202 241 248 272 257 265 238 239 251 246 235 215 236 261 260 262
199 219 160 248 291 274 284 273 38 11 321 321 312 311 290 138 106 48 22 25 356 350 277 230 263 300 260 191 191 202 192 198 205 205 213 204 216 210 219 237 257 261 255 261 251 264 276 254 269